Houghton, MI

1:59 AM EDT on March 26, 2017 (GMT -0400)
Houghton County Memorial

Weather History for KCMX - January, 2014

Change the Weather History Date:

Thursday, January 23, 2014

  Actual Average Record
Temperature  
Mean Temperature 0 °F -  
Max Temperature 7 °F 22 °F 40 °F (1967)
Min Temperature -8 °F 11 °F -20 °F (1963)
Degree Days  
Heating Degree Days 65    
Moisture  
Dew Point -7 °F    
Average Humidity 73    
Maximum Humidity 79    
Minimum Humidity 65    
Precipitation  
Precipitation 0.00 in - - ()
Sea Level Pressure  
Sea Level Pressure 30.35 in    
Wind  
Wind Speed 16 mph (NNW)    
Max Wind Speed 23 mph    
Max Gust Speed 34 mph    
Visibility 4 miles    
Events Snow    
Averages and records for this station are not official NWS values.
T = Trace of Precipitation, MM = Missing Value Source: NWS Daily Summary

Daily Weather History Graph

Daily Weather History Graph

Search for Another Location

Airport or City:

Trip Planner

Search our weather history database for the weather conditions in past years. The results will help you decide how hot, cold, wet, or windy it might be!

Date:

Astronomy

Jan. 23, 2014 Rise Set
Actual Time 8:29 AM EST 5:42 PM EST
Civil Twilight 7:55 AM EST 6:16 PM EST
Nautical Twilight 7:18 AM EST 6:53 PM EST
Astronomical Twilight 6:42 AM EST 7:29 PM EST
Moon 12:43 AM EST (1/23) 11:33 AM EST (1/23)
Length of Visible Light 10h 20m
Length of Day
9h 13m
Waning Gibbous, 55% of the Moon is Illuminated
Jan 23
Waning Gibbous
Jan 24
Last Quarter
Jan 30
New
Feb 6
First Quarter
Feb 14
Full

Hourly Weather History & Observations

Time (EST) Temp. Windchill Dew Point Humidity Pressure Visibility Wind Dir Wind Speed Gust Speed Precip Events Conditions
12:06 AM 6.8 °F -14.3 °F 1.4 °F 79% 30.10 in 0.5 mi NNE 23.0 mph 32.2 mph N/A   Haze
12:40 AM 6.8 °F -13.4 °F 1.4 °F 79% 30.13 in 0.5 mi North 20.7 mph 32.2 mph N/A   Haze
12:53 AM 7.0 °F -11.0 °F 1.0 °F 77% 30.22 in 0.8 mi NNE 16.1 mph 27.6 mph N/A   Haze
1:00 AM 6.8 °F -12.4 °F -0.4 °F 72% 30.14 in 1.0 mi NNE 18.4 mph 26.5 mph N/A   Haze
1:10 AM 6.8 °F -13.4 °F -0.4 °F 72% 30.15 in 0.8 mi NNE 20.7 mph 34.5 mph N/A   Haze
1:25 AM 6.8 °F -11.8 °F -0.4 °F 72% 30.16 in 1.2 mi NNE 17.3 mph 26.5 mph N/A   Haze
1:40 AM 6.8 °F -12.4 °F -0.4 °F 72% 30.17 in 0.8 mi North 18.4 mph 29.9 mph N/A   Haze
1:43 AM 6.8 °F -12.9 °F -0.4 °F 72% 30.17 in 1.2 mi North 19.6 mph 26.5 mph N/A   Haze
1:53 AM 6.1 °F -12.2 °F -0.9 °F 73% 30.27 in 1.5 mi NNE 16.1 mph 29.9 mph N/A   Haze
1:58 AM 6.8 °F -10.0 °F -0.4 °F 72% 30.18 in 3.0 mi North 13.8 mph 23.0 mph N/A   Haze
2:11 AM 6.8 °F -12.4 °F -0.4 °F 72% 30.19 in 2.5 mi North 18.4 mph 27.6 mph N/A   Haze
2:31 AM 6.8 °F -11.8 °F -0.4 °F 72% 30.20 in 1.8 mi North 17.3 mph 23.0 mph N/A   Haze
2:41 AM 6.8 °F -10.7 °F -0.4 °F 72% 30.21 in 3.0 mi North 15.0 mph 23.0 mph N/A   Haze
2:46 AM 6.8 °F -9.3 °F -0.4 °F 72% 30.22 in 2.5 mi North 12.7 mph 23.0 mph N/A   Haze
2:53 AM 6.1 °F -10.9 °F -0.9 °F 73% 30.31 in 1.5 mi North 13.8 mph - N/A   Haze
2:56 AM 6.8 °F -10.0 °F -0.4 °F 72% 30.23 in 1.2 mi North 13.8 mph - N/A   Haze
3:25 AM 5.0 °F -13.0 °F -0.4 °F 78% 30.25 in 0.8 mi North 15.0 mph 20.7 mph N/A   Haze
3:53 AM 3.0 °F -18.8 °F -2.9 °F 76% 30.36 in 0.5 mi North 21.9 mph 27.6 mph N/A   Haze
4:02 AM 1.4 °F -19.9 °F -4.0 °F 78% 30.27 in 0.5 mi North 19.6 mph 28.8 mph N/A   Haze
4:26 AM 1.4 °F -19.4 °F -5.8 °F 72% 30.29 in 1.0 mi North 18.4 mph 26.5 mph N/A   Haze
4:53 AM -0.0 °F -20.1 °F -6.0 °F 76% 30.40 in 2.0 mi North 16.1 mph 24.2 mph N/A   Haze
5:02 AM -0.4 °F -20.5 °F -5.8 °F 78% 30.32 in 3.0 mi North 16.1 mph - N/A   Haze
5:27 AM 1.4 °F -17.6 °F -5.8 °F 72% 30.33 in 1.8 mi NNW 15.0 mph 23.0 mph 0.00 in Snow Light Snow
5:33 AM -0.4 °F -21.2 °F -5.8 °F 78% 30.34 in 0.8 mi North 17.3 mph 23.0 mph 0.00 in   Haze
5:53 AM -0.9 °F -19.9 °F -7.1 °F 75% 30.44 in 0.8 mi North 13.8 mph 25.3 mph 0.00 in   Haze
6:01 AM -0.4 °F -21.7 °F -7.6 °F 72% 30.35 in 1.0 mi North 18.4 mph - 0.00 in Snow Light Snow
6:09 AM -0.4 °F -22.3 °F -7.6 °F 72% 30.35 in 1.0 mi North 19.6 mph 25.3 mph 0.00 in Snow Light Snow
6:53 AM -2.9 °F -23.8 °F -9.9 °F 72% 30.48 in 1.8 mi North 16.1 mph 24.2 mph 0.00 in Snow Light Snow
7:01 AM -2.2 °F -22.9 °F -9.4 °F 71% 30.39 in 2.5 mi North 16.1 mph - 0.00 in   Haze
7:24 AM -4.0 °F -25.8 °F -9.4 °F 78% 30.40 in 2.5 mi North 17.3 mph 26.5 mph 0.00 in   Overcast
7:32 AM -4.0 °F -25.2 °F -9.4 °F 78% 30.40 in 4.0 mi North 16.1 mph - 0.00 in   Overcast
7:53 AM -5.1 °F -28.4 °F -11.0 °F 76% 30.51 in 3.0 mi North 19.6 mph - 0.00 in   Haze
8:53 AM -7.1 °F -29.1 °F -13.0 °F 75% 30.53 in 5.0 mi NNW 16.1 mph 25.3 mph N/A   Haze
9:23 AM -5.8 °F -26.0 °F -11.2 °F 77% 30.43 in 6.0 mi NNW 13.8 mph - N/A   Haze
9:32 AM -5.8 °F -26.0 °F -11.2 °F 77% 30.44 in 7.0 mi NNW 13.8 mph 21.9 mph N/A   Mostly Cloudy
9:53 AM -5.1 °F -25.1 °F -11.9 °F 72% 30.54 in 9.0 mi North 13.8 mph - 0.00 in   Mostly Cloudy
10:43 AM -5.8 °F -23.4 °F -11.2 °F 77% 30.45 in 10.0 mi North 10.4 mph - 0.00 in   Scattered Clouds
10:53 AM -5.1 °F -22.5 °F -11.9 °F 72% 30.56 in 10.0 mi North 10.4 mph - 0.00 in   Scattered Clouds
11:07 AM -5.8 °F -21.2 °F -13.0 °F 71% 30.46 in 9.0 mi North 8.1 mph - 0.00 in   Mostly Cloudy
11:53 AM -5.1 °F -22.5 °F -11.9 °F 72% 30.56 in 10.0 mi NW 10.4 mph - 0.00 in   Scattered Clouds
12:53 PM -4.0 °F -23.0 °F -11.9 °F 69% 30.55 in 10.0 mi NW 12.7 mph - 0.00 in   Mostly Cloudy
1:35 PM -2.2 °F -20.7 °F -11.2 °F 66% 30.44 in 10.0 mi WNW 12.7 mph - 0.00 in   Scattered Clouds
1:53 PM -2.9 °F -19.8 °F -9.9 °F 72% 30.53 in 10.0 mi NW 10.4 mph - 0.00 in   Partly Cloudy
2:13 PM -2.2 °F -16.8 °F -9.4 °F 71% 30.42 in 10.0 mi NW 8.1 mph - N/A   Mostly Cloudy
2:53 PM -2.0 °F -17.7 °F -9.0 °F 72% 30.50 in 3.0 mi WNW 9.2 mph - 0.00 in Snow Light Snow
3:02 PM -2.2 °F -15.6 °F -9.4 °F 71% 30.40 in 2.0 mi WNW 6.9 mph - 0.00 in Snow Light Snow
3:15 PM -0.4 °F -14.7 °F -9.4 °F 66% 30.39 in 5.0 mi WNW 8.1 mph - 0.00 in   Haze
3:34 PM -0.4 °F -14.7 °F -7.6 °F 72% 30.39 in 1.8 mi West 8.1 mph - 0.00 in Snow Light Snow
3:51 PM -0.4 °F -14.7 °F -7.6 °F 72% 30.39 in 2.5 mi West 8.1 mph - 0.00 in Snow Light Snow
3:53 PM -0.0 °F -14.2 °F -7.1 °F 72% 30.48 in 2.0 mi West 8.1 mph - 0.00 in Snow Light Snow
4:10 PM 1.4 °F -17.6 °F -7.6 °F 66% 30.38 in 4.0 mi West 15.0 mph - 0.00 in Snow Light Snow
4:31 PM 1.4 °F -17.6 °F -7.6 °F 66% 30.37 in 1.8 mi West 15.0 mph - 0.00 in Snow Light Snow
4:53 PM -0.9 °F -19.9 °F -9.0 °F 69% 30.47 in 0.8 mi West 13.8 mph 21.9 mph 0.00 in Snow Light Snow
5:02 PM -0.4 °F -17.6 °F -7.6 °F 72% 30.37 in 1.5 mi WSW 11.5 mph - 0.00 in Snow Light Snow
5:12 PM -0.4 °F -18.4 °F -7.6 °F 72% 30.36 in 0.8 mi WSW 12.7 mph - 0.00 in Snow Light Snow
5:23 PM -2.2 °F -20.7 °F -9.4 °F 71% 30.36 in 1.5 mi WSW 12.7 mph 19.6 mph 0.00 in Snow Light Snow
5:34 PM -2.2 °F -22.2 °F -9.4 °F 71% 30.35 in 3.0 mi WSW 15.0 mph - 0.00 in   Overcast
5:53 PM -2.9 °F -23.1 °F -9.9 °F 72% 30.45 in 5.0 mi WSW 15.0 mph 23.0 mph 0.00 in   Haze
6:01 PM -4.0 °F -24.5 °F -9.4 °F 78% 30.34 in 8.0 mi WSW 15.0 mph 21.9 mph N/A   Partly Cloudy
6:53 PM -5.1 °F -21.5 °F -11.9 °F 72% 30.43 in 10.0 mi WSW 9.2 mph - N/A   Clear
7:53 PM -7.1 °F -21.4 °F -13.0 °F 75% 30.40 in 10.0 mi WSW 6.9 mph - N/A   Clear
8:53 PM -5.1 °F -24.3 °F -13.0 °F 69% 30.34 in 10.0 mi WSW 12.7 mph - N/A   Clear
9:53 PM -4.0 °F -21.2 °F -13.0 °F 65% 30.27 in 10.0 mi WSW 10.4 mph - N/A   Clear
10:53 PM -7.1 °F -18.1 °F -14.1 °F 72% 30.22 in 10.0 mi SW 4.6 mph - N/A   Clear
11:53 PM -8.0 °F -21.0 °F -15.0 °F 71% 30.14 in 10.0 mi SSW 5.8 mph - N/A   Clear